Location: Albany
(35.0000°S, 118.0000°E)
Time: 05:25:40
(UTC-04:00)

Atlas Centaur 2 - Visible Passes

Search period start: 18 June 2018 00:00
Search period end: 28 June 2018 00:00
Orbit: 459 x 1312 km, 30.4° (Epoch: 17 June)

Date Brightness Start Highest point End Pass type
(mag) Time Alt. Az. Time Alt. Az. Time Alt. Az.
18 Jun 3.5 06:14:01 10° NW 06:19:52 31° NNE 06:23:24 17° ENE visible
18 Jun 3.8 08:03:02 10° WNW 08:06:02 27° NW 08:06:02 27° NW visible
19 Jun 3.3 06:09:57 10° NW 06:16:18 37° NNE 06:20:13 17° ENE visible
19 Jun 3.6 07:59:17 10° WNW 08:02:51 32° WNW 08:02:51 32° WNW visible
20 Jun 3.2 06:05:59 10° NW 06:12:43 43° NNE 06:17:03 16° ENE visible
20 Jun 3.4 07:55:34 10° WNW 07:59:41 37° NW 07:59:41 37° NW visible
21 Jun 3.1 06:02:05 10° WNW 06:09:08 48° N 06:13:53 15° E visible
21 Jun 3.2 07:51:52 10° W 07:56:30 41° NW 07:56:30 41° NW visible
22 Jun 3.1 05:58:13 10° WNW 06:05:33 53° N 06:10:43 14° E visible
22 Jun 3.1 07:48:09 10° W 07:53:21 45° NW 07:53:21 45° NW visible
23 Jun 3.1 05:54:24 10° WNW 06:01:57 57° N 06:07:35 12° E visible
23 Jun 3.0 07:44:26 10° W 07:50:13 48° NW 07:50:13 48° NW visible
24 Jun 3.1 05:50:36 10° WNW 05:58:21 60° N 06:04:28 11° E visible
24 Jun 3.0 07:40:45 10° W 07:47:07 47° NNW 07:47:07 47° NNW visible
25 Jun 3.2 05:46:50 10° WNW 05:54:44 61° N 06:01:11 10° ENE visible
25 Jun 3.1 07:37:05 10° W 07:43:50 44° NNW 07:44:03 44° N visible
26 Jun 3.2 05:43:05 10° W 05:51:06 61° N 05:57:42 10° ENE visible
26 Jun 3.3 07:33:24 10° W 07:40:10 40° NNW 07:41:04 38° N visible
27 Jun 3.3 05:39:21 10° W 05:47:27 60° N 05:54:13 10° ENE visible
27 Jun 3.6 07:29:46 10° W 07:36:29 36° NNW 07:38:10 31° N visible
